Flag for Germany

Past Weather in Crailsheim, Baden-Württemberg, Germany — Yesterday and Last 2 Weeks

Now
72 °F

Scattered clouds.


Feels Like: 75 °F
Forecast: 75 / 62 °F
Wind: 7 mph from Southeast

Location: Niederstetten
Current Time: Aug 13, 2020 at 8:31:50 am
Latest Report: Aug 13, 2020 at 7:20 am
Visibility: N/A
Pressure29.95 "Hg
Humidity: 65%
Dew Point: 59 °F
Location of CrailsheimLocation

Past Weather in Crailsheim — Graph

°F

Crailsheim Temperature Yesterday

Maximum temperature yesterday: 88 °F (at 1:20 pm)
Minimum temperature yesterday: 64 °F (at 3:20 am)
Average temperature yesterday: 78 °F

High & Low Weather Summary for the Past Weeks

 TemperatureHumidityPressure
High91 °F (Jul 31, 4:20 pm)100% (Aug 3, 9:20 pm)30.18 "Hg (Aug 3, 9:20 pm)
Low52 °F (Aug 5, 4:20 am)20% (Jul 30, 4:20 pm)29.86 "Hg (Aug 3, 2:20 pm)
Average72 °F57%30.05 "Hg
* Reported Jul 29 7:20 am — Aug 13 7:20 am, Crailsheim. Weather by CustomWeather, © 2020

Note: Actual official high and low records may vary slightly from our data, if they occured in-between our weather recording intervals... More about our weather records

Crailsheim Weather History for the Previous 24 Hours

Scroll right to see more
 ConditionsComfort  
Time TempWeatherWind HumidityBarometerVisibility
7:20 am
Thu, Aug 13
72 °FScattered clouds.7 mph65%29.95 "HgN/A
6:20 am70 °FScattered clouds.8 mph64%29.95 "HgN/A
5:20 am70 °FPartly cloudy.8 mph64%29.95 "HgN/A
4:20 am70 °FPassing clouds.6 mph64%29.98 "HgN/A
2:20 am72 °FPassing clouds.6 mph57%29.98 "HgN/A
1:20 am72 °FPassing clouds.7 mph57%29.98 "HgN/A
12:20 am73 °FPassing clouds.6 mph53%30.01 "HgN/A
11:20 pm
Wed, Aug 12
73 °FPassing clouds.7 mph57%30.01 "HgN/A
10:20 pm73 °FPassing clouds.7 mph57%30.01 "HgN/A
9:20 pm77 °FPassing clouds.7 mph51%30.01 "HgN/A
8:20 pm81 °FPartly sunny.7 mph42%29.98 "HgN/A
7:20 pm84 °FPartly sunny.6 mph37%30.01 "HgN/A
6:20 pm88 °FScattered clouds.8 mph33%29.98 "HgN/A
5:20 pm88 °FScattered clouds.10 mph33%30.01 "HgN/A
5:00 pm88 °FPassing clouds.10 mph35%30.01 "HgN/A
4:20 pm88 °FPassing clouds.12 mph35%30.01 "HgN/A
3:20 pm88 °FPassing clouds.9 mph35%30.01 "HgN/A
2:20 pm88 °FPassing clouds.10 mph35%30.04 "HgN/A
1:20 pm88 °FPassing clouds.9 mph35%30.04 "HgN/A
12:20 pm86 °FPassing clouds.9 mph43%30.07 "HgN/A
11:20 am82 °FScattered clouds.12 mph45%30.07 "HgN/A
10:20 am81 °FScattered clouds.15 mph54%30.07 "HgN/A
9:20 am75 °FScattered clouds.10 mph65%30.07 "HgN/A
8:20 am72 °FScattered clouds.8 mph73%30.07 "HgN/A
Weather by CustomWeather, © 2020

See weather overview